Regional Weather Roundup
Issued by NWS Charleston, SC

Current Version | Previous Version | Graphics & Text | Print | Product List | Glossary On
Versions: 1 2 3 4 5 6 7 8 9 10 11 12 13 14 15 16 17 18 19 20 21 22 23 24 25 26 27 28 29 30 31 32 33 34 35 36 37 38 39 40 41 42 43 44 45 46 47 48 49 50
245 ASUS42 KCHS 211340 RWRCHS REGIONAL WEATHER ROUNDUP NATIONAL WEATHER SERVICE CHARLESTON SC 900 AM EDT THU SEP 21 2017 NOTE: "FAIR" INDICATES FEW OR NO CLOUDS BELOW 12,000 FEET WITH NO SIGNIFICANT WEATHER AND/OR OBSTRUCTIONS TO VISIBILITY. NOT ALL STATIONS ARE QUALITY CONTROLLED. USE DATA WITH CAUTION... ESPECIALLY DEWPOINT OBSERVATIONS. SCZ027-030-031-034>040-042>050-211400- ...SOUTHEAST SOUTH CAROLINA... CITY SKY/WX TMP DP RH WIND PRES REMARKS N CHARLESTON MOSUNNY 78 75 90 W6 30.05R WATERFRONT PRK N/A 78 75 90 VRB3 29.88S JOHNS ISLAND FAIR 81 77 89 W5 30.05R PINOPOLIS N/A 77 73 88 VRB2 29.97R MONCKS CORNER FAIR 73 72 94 CALM 30.05R SUMMERVILLE FAIR 75 72 88 CALM 30.06R BEAUFORT MCAS MOSUNNY 79 77 94 CALM 30.05R BEAUFORT ARPT FAIR 79 73 83 SW3 30.05R HAZE HILTON HEAD IS SUNNY 79 77 94 SW6 30.06R WALTERBORO SUNNY 73 72 94 CALM 30.06S ALLENDALE NOT AVBL ...SOUTHERN MIDLANDS AND PEE DEE... CITY SKY/WX TMP DP RH WIND PRES REMARKS GEORGETOWN FAIR 75 75 100 W3 30.06R KINGSTREE NOT AVBL ORANGEBURG SUNNY 75 70 84 W3 30.05R BARNWELL FAIR 79 73 83 CALM 30.05S AIKEN FAIR 75 70 83 CALM 30.10R MANNING FAIR 77 70 78 CALM 30.05R COLUMBIA SUNNY 79 70 73 CALM 30.06S SUMTER SUNNY 76 69 80 N5 30.02S FLORENCE SUNNY 75 72 90 NW5 30.05S MYRTLE BEACH MOSUNNY 76 72 87 NW8 30.05S N MYRTLE BEACH MOSUNNY 76 73 91 W6 30.03S $$ GAZ063-065-086>088-099>101-113>116-118-119-134>141-150-211400- ...SOUTHEAST GEORGIA... CITY SKY/WX TMP DP RH WIND PRES REMARKS SAVANNAH ARPT MOSUNNY 77 74 90 S3 30.06R HUNTER AAF SUNNY 77 74 91 CALM 30.03R FORT STEWART MOSUNNY 74 71 88 CALM 30.04R STATESBORO SUNNY 76 69 80 CALM 30.06R SYLVANIA MOSUNNY 76 74 94 CALM 30.07R CLAXTON FAIR 77 73 87 CALM 30.06R ...CSRA...CENTRAL AND FAR SOUTHEAST GEORGIA... CITY SKY/WX TMP DP RH WIND PRES REMARKS THOMSON SUNNY 74 69 85 NE3 30.12S AUGUSTA-BUSH SUNNY 74 72 93 CALM 30.05R FOG AUGUSTA-DANIEL SUNNY 78 71 79 N7 30.06R SWAINSBORO FAIR 75 73 94 CALM 30.07S VIDALIA MOSUNNY 77 73 88 N3 30.07R EASTMAN FAIR 74 74 100 CALM 30.09S HAZLEHURST FAIR 78 67 70 CALM 30.06R ALMA PTSUNNY 73 71 93 E3 30.05R FOG WAYCROSS CLOUDY 75 72 90 CALM 30.05S JESUP NOT AVBL BAXLEY FAIR 73 73 100 CALM 30.06R BRUNSWICK CLOUDY 77 72 83 CALM 30.06S SAINT SIMONS CLOUDY 79 75 87 NW3 30.05R $$ SCZ027-028-034-036>038-045-046-048>050-GAZ119-141-211400- ...LAKE AND SUPPLEMENTAL COASTAL OBSERVATIONS... STATION/POSITION TIME TEMP WIND PRES WAVE SWELL AIR SEA DIR/SP/G HT/PER HT/PER/DIR (UTC) (F) (DEG/KT/KT) (MB) (FT/S) (FT/S/D) WINYAH BAY 1230 76 270/ 3 1017.0S LAKE MURRAY NOT AVBL ACE BASIN NERRS 1245 76 CALM 1018.0R FORT PULASKI 1300 78 80 280/ 2/ 3 1018.1 SAPELO ISLAND 1300 77 CALM 1018.0 $$ ANZ835-935-AMZ111-154-330-350-352-354-370-450-454-472-211400- ...C-MAN AND BUOY OBSERVATIONS... STATION/POSITION TIME TEMP WIND PRES WAVE SWELL AIR SEA DIR/SP/G HT/PER HT/PER/DIR (UTC) (F) (DEG/KT/KT) (MB) (FT/S) (FT/S/D) BUOY 41004 1300 79 81 310/ 6/ 8 1017.1 BUOY 41008 1250 80 80 70/ 2/ 2 1017.1R 3/12 2/ 90/12 FOLLY BEACH CMAN 1300 79 290/ 2/ 4 1018.1R CAPERS NEARSHORE 1308 80 80 300/ 4/ 6 1017.3R FRIPP NEARSHORE 1308 79 270/ 2/ 4 1026.6R STATION/POSITION TIME TEMP WIND PRES WAVE SWELL AIR SEA DIR/SP/G HT/PER HT/PER/DIR (UTC) (F) (DEG/KT/KT) (MB) (FT/S) (FT/S/D) 5E ST. MARYS GA 1230 82 N/A 2/11 2/100/11 FRYING PAN BUOY 1300 80 82 300/ 10/ 14 1016.9 BUOY 41025 1250 75 75 320/ 4/ 4 1016.2R 4/10 3/ 50/10 CAPE LOOKOUT NC 1300 78 290/ 5/ 7 1016.6R BUOY 41002 1250 78 79 10/ 2/ 4 1017.1R 6/10 5/ 20/10 BUOY 41010 1300 85 40/ 10/ 14 1016.4 ST AUGUSTINE FL 1300 76 82 310/ 3/ 3 1017.3R $$

USA.gov is the U.S. government's official web portal to all federal, state and local government web resources and services.